カタログに戻る

FENGYUN 1C DEB

運用中PO
NORAD 35240·DEBRIS·🇨🇳 China

打ち上げ May 10, 1999 から Taiyuan Satellite Launch Center

Loading…

次のパス (今後24時間)

TLE

最新Source: Space-Track

元期: Sep 12, 2026, 04:17 UTC

1 35240U 99025DQY 26255.17907220  .00001838  00000-0  79373-3 0  9999
2 35240  99.3623 240.2449 0047409  93.2671 267.3932 14.25204127970573

AllMySatでFENGYUN 1C DEBをリアルタイム追跡

Download on the App Store